Regional Weather Roundup
Issued by NWS

Home | Current Version | Previous Version | Text Only | Print | Product List | Glossary Off
Versions: 1 2 3 4 5 6 7 8 9 10 11 12 13 14 15 16 17 18 19 20 21 22 23 24 25 26 27 28 29 30 31 32 33 34 35 36 37 38 39 40 41 42 43 44 45 46 47 48 49 50

000
ASUS43 KMKX 170000
RWRWI

WISCONSIN REGIONAL WEATHER ROUNDUP
NATIONAL WEATHER SERVICE MILWAUKEE/SULLIVAN WI
700 PM CDT MON OCT 16 2017

NOTE: "FAIR" INDICATES FEW OR NO CLOUDS BELOW 12,000 FEET WITH NO
SIGNIFICANT WEATHER AND/OR OBSTRUCTIONS TO VISIBILITY.

WIZ001-002-006>008-014>016-023>028-170100-
NORTHWEST WISCONSIN

CITY           SKY/WX    TMP DP  RH WIND       PRES   REMARKS
SUPERIOR ARPT  CLEAR     57  35  44 SW10      29.93F
ASHLAND        CLEAR     54  34  46 S9        29.96F
6HR MIN TEMP:  54; 6HR MAX TEMP:  60;

HAYWARD        CLEAR     50  35  56 S7        29.99F
6HR MIN TEMP:  50; 6HR MAX TEMP:  60;

SIREN          CLEAR     55  36  48 S3        29.98F
CUMBERLAND     CLEAR     50  34  53 S7        30.01F
RICE LAKE      CLEAR     52  36  54 SE7       30.03F
CHETEK         CLEAR     53  36  52 SE6       30.03F
LADYSMITH      CLEAR     52  36  54 S7        30.05F
EAU CLAIRE     NOT AVBL
MENOMONIE      CLEAR     54  36  51 SE6       30.04F
NEW RICHMOND   CLEAR     55  35  47 S6        30.01F
OSCEOLA        CLEAR     55  38  53 SE6       30.02F
$$

WIZ003>005-009-010-017-018-170100-
NORTH CENTRAL WISCONSIN

CITY           SKY/WX    TMP DP  RH WIND       PRES   REMARKS
MANITOWISH WTR CLEAR     48  33  57 S6        30.02S
ARBOR VITAE    CLEAR     49  36  60 S3        30.03F
WOODRUFF       CLEAR     49  36  60 S3        30.03F
RHINELANDER    CLEAR     48  34  58 SW7       30.05F
6HR MIN TEMP:  48; 6HR MAX TEMP:  57;

EAGLE RIVER    CLEAR     49  32  51 SW3       30.03F
LAND O LAKES   CLEAR     49  34  54 S3        30.04F
PHILLIPS       CLEAR     50  34  53 S5        30.04S
TOMAHAWK       CLEAR     46  34  65 CALM      30.06F
MEDFORD        CLEAR     49  35  58 S5        30.07F
MERRILL        CLEAR     51  35  54 S3        30.08F
$$

WIZ029-030-035-036-043>047-170100-
CENTRAL WISCONSIN

CITY           SKY/WX    TMP DP  RH WIND       PRES   REMARKS
WAUSAU         CLEAR     51  36  56 SW5       30.07F
6HR MIN TEMP:  51; 6HR MAX TEMP:  58;

MOSINEE        NOT AVBL
MARSHFIELD     CLEAR     50  34  54 S6        30.08F
6HR MIN TEMP:  50; 6HR MAX TEMP:  58;

STEVENS POINT  CLEAR     48  35  62 S6        30.11F
WAUPACA        CLEAR     53  38  56 S5        30.12F
WAUTOMA        CLEAR     49  40  71 S5        30.13F
6HR MIN TEMP:  49; 6HR MAX TEMP:  61;

WISC RAPIDS    CLEAR     48  40  73 S5        30.11F
6HR MIN TEMP:  47; 6HR MAX TEMP:  61;

CAMP DOUGLAS   NOT AVBL
$$

WIZ011>013-019>022-031-037>040-048>050-170100-
NORTHEAST WISCONSIN

CITY           SKY/WX    TMP DP  RH WIND       PRES   REMARKS
ANTIGO         CLEAR     47  36  66 SW7       30.09S
SHAWANO        CLEAR     55  38  52 CALM      30.10F
OCONTO         CLEAR     52  37  57 CALM      30.10F
STURGEON BAY   CLEAR     51  38  60 S6        30.12F
6HR MIN TEMP:  51; 6HR MAX TEMP:  57;

GREEN BAY      CLEAR     52  41  66 S7        30.11F
6HR MIN TEMP:  52; 6HR MAX TEMP:  59;

MANITOWOC      NOT AVBL
APPLETON       PTCLDY    48  36  61 SW7       30.11F
CLINTONVILLE   CLEAR     48  37  66 S6        30.11S
OSHKOSH        CLEAR     47  39  74 S7        30.13F
6HR MIN TEMP:  46; 6HR MAX TEMP:  59;

$$

WIZ032>034-041-042-053>061-170100-
SOUTHWEST WISCONSIN

CITY           SKY/WX    TMP DP  RH WIND       PRES   REMARKS
LA CROSSE      CLEAR     56  39  53 S8        30.09F
6HR MIN TEMP:  55; 6HR MAX TEMP:  66;

SPARTA         CLEAR     51  38  63 SE3       30.12S
VIROQUA        CLEAR     54  36  50 CALM      30.13F
BOSCOBEL       CLEAR     51  39  63 CALM      30.15S
6HR MIN TEMP:  51; 6HR MAX TEMP:  66;

PRAIRIE DU CHI CLEAR     58  35  42 CALM      30.13F
PLATTEVILLE    CLEAR     55  37  50 S7        30.17F
$$

WIZ056-057-062-063-064-067-068-170100-
SOUTH CENTRAL WISCONSIN

CITY           SKY/WX    TMP DP  RH WIND       PRES   REMARKS
REEDSBURG      CLEAR     53  38  55 S5        30.14S
BARABOO/DELLS  CLEAR     47  37  66 S3        30.14F
LONE ROCK      NOT AVBL
MINERAL POINT  CLEAR     55  34  44 S6        30.17F
MADISON        PTCLDY    55  38  52 CALM      30.16F
6HR MIN TEMP:  55; 6HR MAX TEMP:  60;

MIDDLETON      CLEAR     56  36  46 SW5       30.17S
WATERTOWN      CLEAR     51  37  58 SW5       30.16F
MONROE         CLEAR     54  36  50 SW8       30.18F
JANESVILLE     CLEAR     55  36  47 MISG      30.18F
$$

WIZ051-052-058>065-066-070>072-170100-
SOUTHEAST WISCONSIN

CITY           SKY/WX    TMP DP  RH WIND       PRES   REMARKS
MILWAUKEE      PTCLDY    56  37  49 S5        30.19S
6HR MIN TEMP:  56; 6HR MAX TEMP:  62;

WAUKESHA       CLEAR     50  36  57 CALM      30.19F
MILWAUKEE/TIMM CLEAR     54  32  43 SW3       30.19S
RACINE         CLEAR     52  38  58 S3        30.21S
6HR MIN TEMP:  52; 6HR MAX TEMP:  62;

BURLINGTON     CLEAR     48  39  70 CALM      30.19S
KENOSHA        CLEAR     56  36  47 SW5       30.20S
6HR MIN TEMP:  51; 6HR MAX TEMP:  62;

FOND DU LAC    CLEAR     51  36  56 S5        30.15F
6HR MIN TEMP:  51; 6HR MAX TEMP:  60;

SHEBOYGAN      CLEAR     48  39  71 S5        30.15F
6HR MIN TEMP:  48; 6HR MAX TEMP:  60;

WEST BEND      CLEAR     50  36  57 CALM      30.17F
JUNEAU         CLEAR     51  37  56 S3        30.18F
$$

LSZ147-162-170100-
LAKE SUPERIOR

STATION/POSITION TIME  TEMP    WIND        PRES    WAVE
                       AIR SEA DIR/SP/G            HT/PER
                 (UTC) (F)     (DEG/KT/KT) (MB)    (FT/S)
W MID LAKE BUOY  2250   54 53              1014.1F   3/ 5
DEVILS ISLAND    2300   57     190/ 10/ 13 1014.1F
SAXON HARBOR     2340   52     210/  2/  5 1014.2F
$$

LMZ867-665-643>646-170100-
LAKE MICHIGAN

STATION/POSITION TIME  TEMP    WIND        PRES    WAVE
                       AIR SEA DIR/SP/G            HT/PER
                 (UTC) (F)     (DEG/KT/KT) (MB)    (FT/S)
S GREEN BAY BUOY 2330   58 58  220/ 14/ 17 1019.0F
N MID LAKE BUOY  2250   56 60  210/ 17/ 21 1020.3F   3/ 5
NORTHPORT PIER   2340   53     180/  2/  5 1019.3S
KEWAUNEE LAKESHO 2330   55     200/  7/  8 1019.7F
SHEBOYGAN LAKESH 2300   55     190/ 13/ 14 1021.7R
PORT WASHINGTON  2340   55     270/  2/  4 1022.4F
MILWAUKEE LAKESH 2330   59     230/  6/  7   N/A
S MID LAKE BUOY  2250   58 62  220/ 10/ 12 1023.2F   1/ 3
KENOSHA   LAKESH 2300   60     240/  5/  9 1022.4
$$

TC  - TEMPERATURE IN CELSIUS
VSB - VISIBILITY IN STATUTE MILES
WCI - WIND CHILL INDEX
HX  - HEAT INDEX





USA.gov is the U.S. government's official web portal to all federal, state and local government web resources and services.